TimeCST,TemperatureF,Dew PointF,Humidity,Sea Level PressureIn,VisibilityMPH,Wind Direction,Wind SpeedMPH,Gust SpeedMPH,PrecipitationIn,Events,Conditions,WindDirDegrees,DateUTC
12:53 AM,44.1,35.1,71,29.96,10.0,NW,13.8,-,N/A,,Overcast,310,2012-11-07 06:53:00
1:24 AM,44.6,35.6,71,29.95,10.0,NNW,23.0,32.2,N/A,,Overcast,330,2012-11-07 07:24:00
1:53 AM,42.1,37.0,82,29.97,10.0,NW,13.8,-,0.00,,Overcast,320,2012-11-07 07:53:00
2:04 AM,42.8,35.6,76,29.96,10.0,NW,13.8,-,N/A,,Overcast,320,2012-11-07 08:04:00
2:53 AM,41.0,35.1,79,29.99,10.0,NNW,15.0,-,N/A,,Overcast,330,2012-11-07 08:53:00
3:53 AM,39.9,35.1,83,30.00,10.0,NNW,13.8,-,N/A,,Overcast,330,2012-11-07 09:53:00
4:25 AM,39.2,35.6,87,30.01,10.0,NNW,12.7,-,N/A,,Mostly Cloudy,340,2012-11-07 10:25:00
4:53 AM,39.0,34.0,82,30.03,10.0,NNW,15.0,24.2,N/A,,Overcast,340,2012-11-07 10:53:00
5:53 AM,39.0,34.0,82,30.06,10.0,NNW,12.7,-,N/A,,Overcast,340,2012-11-07 11:53:00
6:53 AM,39.0,34.0,82,30.08,10.0,North,10.4,-,N/A,,Overcast,350,2012-11-07 12:53:00
7:28 AM,35.6,33.8,93,30.09,10.0,NNW,8.1,-,N/A,,Mostly Cloudy,330,2012-11-07 13:28:00
7:53 AM,39.0,34.0,82,30.11,10.0,NNW,10.4,-,N/A,,Mostly Cloudy,330,2012-11-07 13:53:00
8:53 AM,42.1,35.1,76,30.12,10.0,NNW,13.8,-,N/A,,Clear,340,2012-11-07 14:53:00
9:53 AM,45.0,34.0,65,30.14,10.0,North,10.4,-,N/A,,Clear,360,2012-11-07 15:53:00
10:32 AM,44.6,33.8,66,30.14,10.0,NW,10.4,-,N/A,,Mostly Cloudy,310,2012-11-07 16:32:00
10:49 AM,44.6,33.8,66,30.14,10.0,North,8.1,-,N/A,,Overcast,350,2012-11-07 16:49:00
10:53 AM,45.0,33.1,63,30.15,10.0,NNW,8.1,-,N/A,,Overcast,330,2012-11-07 16:53:00
11:53 AM,45.0,33.1,63,30.14,10.0,WSW,4.6,-,N/A,,Overcast,250,2012-11-07 17:53:00
12:53 PM,46.9,33.1,59,30.13,10.0,Variable,3.5,-,N/A,,Overcast,0,2012-11-07 18:53:00
1:53 PM,46.0,30.9,56,30.12,10.0,Calm,Calm,-,N/A,,Overcast,0,2012-11-07 19:53:00
2:53 PM,46.0,32.0,58,30.12,10.0,Calm,Calm,-,N/A,,Overcast,0,2012-11-07 20:53:00
3:53 PM,46.0,32.0,58,30.12,10.0,Variable,3.5,-,N/A,,Overcast,0,2012-11-07 21:53:00
4:53 PM,46.0,32.0,58,30.13,10.0,Calm,Calm,-,N/A,,Overcast,0,2012-11-07 22:53:00
5:53 PM,44.1,32.0,63,30.14,8.0,Calm,Calm,-,N/A,,Overcast,0,2012-11-07 23:53:00
6:49 PM,44.6,30.2,57,30.12,2.0,Calm,Calm,-,N/A,,Haze,0,2012-11-08 00:49:00
6:53 PM,41.0,30.9,67,30.14,2.5,Calm,Calm,-,N/A,,Haze,0,2012-11-08 00:53:00
7:00 PM,41.0,30.2,65,30.12,7.0,Calm,Calm,-,N/A,,Mostly Cloudy,0,2012-11-08 01:00:00
7:53 PM,37.0,30.0,76,30.14,10.0,SSE,3.5,-,N/A,,Clear,160,2012-11-08 01:53:00
8:53 PM,34.0,28.9,82,30.15,10.0,South,6.9,-,N/A,,Clear,180,2012-11-08 02:53:00
9:53 PM,33.1,28.9,85,30.16,10.0,South,6.9,-,N/A,,Clear,170,2012-11-08 03:53:00
10:53 PM,33.1,28.0,82,30.16,10.0,South,6.9,-,N/A,,Clear,170,2012-11-08 04:53:00
11:53 PM,34.0,30.0,85,30.16,10.0,South,6.9,-,N/A,,Clear,180,2012-11-08 05:53:00